Regional Weather Roundup
Issued by NWS

Home | Current Version | Previous Version | Text Only | Print | Product List | Glossary Off
Versions: 1 2 3 4 5 6 7 8 9 10 11 12 13 14 15 16 17 18 19 20 21 22 23 24 25 26 27 28 29 30 31 32 33 34 35 36 37 38 39 40 41 42 43 44 45 46 47 48 49 50

000
ASUS43 KDTX 111201
RWRMI
MICHIGAN HOURLY REGIONAL WEATHER ROUNDUP
NATIONAL WEATHER SERVICE DETROIT/PONTIAC MI
700 AM EST THU FEB 11 2016

NOTE: "FAIR" INDICATES FEW OR NO CLOUDS BELOW 12,000 FEET WITH NO
SIGNIFICANT WEATHER AND/OR OBSTRUCTION TO VISIBILITY.

MIZ047>049-052>055-059>063-066>070-074>076-081>083-111300-
SOUTHEAST LOWER MICHIGAN

CITY           SKY/WX    TMP DP  RH WIND       PRES   REMARKS
ADRIAN         PTCLDY    12   5  73 W5        30.14R WCI   4
6HR MIN TEMP:  11; 6HR MAX TEMP:  14;

ALMA           CLEAR     12   8  84 W7        30.12R WCI   1
ANN ARBOR      MOCLDY    10   4  76 W7        30.12R WCI  -1
BAD AXE        CLOUDY    10   3  74 NW14      30.08R WCI  -7
CARO           CLOUDY    10   7  85 W3        30.10R
DETROIT CITY   CLEAR     10   3  73 NW7       30.11R WCI  -1
6HR MIN TEMP:  10; 6HR MAX TEMP:  13;

DETROIT        MOCLDY    11   4  73 W8        30.13R WCI  -1
6HR MIN TEMP:  10; 6HR MAX TEMP:  14; 6HR PCP: TRACE;

FLINT          MOCLDY     6   0  76 W7        30.11R WCI  -6
6HR MIN TEMP:   4; 6HR MAX TEMP:  13;

GROSSE ILE     CLEAR     12   7  79 NW9       30.12R WCI   0
HILLSDALE      PTCLDY    12   6  78 NW9       30.11R WCI  -1
6HR MIN TEMP:  11; 6HR MAX TEMP:  13;

HOWELL         CLEAR      8   4  85 W6        30.10R WCI  -3

CITY           SKY/WX    TMP DP  RH WIND       PRES   REMARKS
JACKSON        CLEAR      9   4  80 W7        30.12R WCI  -2
6HR MIN TEMP:   9; 6HR MAX TEMP:  12;

LAMBERTVILLE   MOCLDY    13   6  72 W5        30.15R WCI   6
6HR MIN TEMP:  10; 6HR MAX TEMP:  13;

LANSING        CLEAR     11   2  67 W7        30.13R WCI   0
6HR MIN TEMP:  10; 6HR MAX TEMP:  13;

LAPEER         FLURRIES   9   6  87 W6        30.08R WCI  -1
6HR MIN TEMP:   6; 6HR MAX TEMP:   9;

MASON          PTCLDY    11   3  71 W7        30.11S WCI   0
MONROE         MOCLDY    12   5  72 W8        30.14R WCI   1
6HR MIN TEMP:  10; 6HR MAX TEMP:  13;

MT. CLEMENS    CLOUDY    10   4  76 W10       30.09R WCI  -4
6HR MIN TEMP:   9; 6HR MAX TEMP:  11;

PONTIAC        PTCLDY     6   2  83 W10       30.07R WCI  -9
6HR MIN TEMP:   6; 6HR MAX TEMP:  10;

PORT HOPE        N/A     11   4  73 NW17G29   30.04R WCI  -6
6HR MIN TEMP:  11; 6HR MAX TEMP:  14;

PORT HURON     CLOUDY     7   1  78 W5        30.09R WCI  -2
TRI CITIES     FLURRIES  13   5  70 NW10      30.12R WCI   0
6HR MIN TEMP:   8; 6HR MAX TEMP:  13; 6HR PCP: TRACE;

MIDLAND        CLOUDY    12   5  73 NW6       30.12R WCI   2
6HR MIN TEMP:   3; 6HR MAX TEMP:  13;

TROY           CLEAR     11   6  81 W7        30.12R WCI   1
SAGINAW HB     CLOUDY    12   9  85 W6        30.11R WCI   3
$$
MIZ043>046-050>051-056>058-064>065-071>073-077>080-111300-
SOUTHWEST LOWER MICHIGAN

CITY           SKY/WX    TMP DP  RH WIND       PRES   REMARKS
BATTLE CREEK   CLOUDY    11   6  81 W6        30.14R WCI   1
6HR MIN TEMP:   9; 6HR MAX TEMP:  13;

BENTON HARBOR  CLOUDY    18   4  54 NW15G21   30.19R WCI   4
6HR MIN TEMP:  18; 6HR MAX TEMP:  20; 6HR PCP:  0.02;

BIG RAPIDS     CLOUDY    12   9  85 W6        30.10R WCI   3
6HR MIN TEMP:   9; 6HR MAX TEMP:  12;

COLDWATER      CLOUDY    14   9  81 NW3       30.14R
6HR MIN TEMP:  13; 6HR MAX TEMP:  15;

FREMONT        CLOUDY    13   8  80 NW6       30.14S WCI   4
HOLLAND        CLOUDY    15   8  73 VRB3      30.18R
6HR MIN TEMP:  14; 6HR MAX TEMP:  16; 6HR PCP:  0.04;

GRAND RAPIDS   MOCLDY    16   6  65 NW9       30.15R WCI   4
6HR MIN TEMP:  14; 6HR MAX TEMP:  16;

IONIA          MOCLDY    13   4  68 W8        30.12S WCI   1
6HR MIN TEMP:  12; 6HR MAX TEMP:  14;

KALAMAZOO      CLOUDY    14   6  70 NW6       30.16R WCI   5
6HR MIN TEMP:  13; 6HR MAX TEMP:  14; 6HR PCP: TRACE;

LUDINGTON      FLURRIES  16   6  65 NW8       30.16S WCI   5
6HR MIN TEMP:  15; 6HR MAX TEMP:  16;

MARSHALL       MOCLDY     9   6  85 W5        30.14R WCI   1
6HR MIN TEMP:   7; 6HR MAX TEMP:  14;

MOUNT PLEASANT PTCLDY    12   5  74 W9        30.10R WCI   0
6HR MIN TEMP:  10; 6HR MAX TEMP:  13;

MUSKEGON       LGT SNOW  17   6  62 N7        30.17R WCI   8
6HR MIN TEMP:  15; 6HR MAX TEMP:  17; 6HR PCP: TRACE;

SOUTH HAVEN    FLURRIES  18   8  65 NW10G16   30.17S WCI   6
$$
MIZ016>042-111300-
NORTHERN LOWER MICHIGAN

CITY           SKY/WX    TMP DP  RH WIND       PRES   REMARKS
ALPENA         LGT SNOW   6  -1  73 NW13G24   30.08R WCI -10
6HR MIN TEMP:   4; 6HR MAX TEMP:   8; 6HR PCP: TRACE;

BEAVER ISLAND  CLOUDY    10   3  74 N12G18    30.14R WCI  -5
6HR MIN TEMP:   9; 6HR MAX TEMP:  13;

BELLAIRE       CLOUDY    12   5  73 N6        30.13R WCI   3
6HR MIN TEMP:   6; 6HR MAX TEMP:  14;

CADILLAC       FLURRIES  10   5  79 W8        30.05R WCI  -2
CHARLEVOIX     MOCLDY    12   4  69 NW16G25   30.14R WCI  -4
FRANKFORT      CLOUDY    16   5  61 N8G18     30.15R WCI   6
GAYLORD        CLOUDY     4  -1  80 VRB5      30.04R WCI  -5
6HR MIN TEMP:  -2; 6HR MAX TEMP:   8; 6HR PCP: TRACE;

GRAYLING       CLOUDY   -10 -15  79 CALM      30.06R
HARBOR SPRINGS CLOUDY     4  -1  79 CALM      30.12R
HOUGHTON LAKE  CLOUDY     5   0  79 NW3       30.07R
6HR MIN TEMP:   0; 6HR MAX TEMP:   8; 6HR PCP:  0.01;

MANISTEE       CLOUDY    16   1  53 N14G20    30.14R WCI   1
OSCODA         MOCLDY    -1  -6  82 W7        30.09R WCI -15
6HR MIN TEMP:  -3; 6HR MAX TEMP:   7;

PELLSTON       CLOUDY     3  -2  79 N3        30.12R
6HR MIN TEMP:   2; 6HR MAX TEMP:   5;

ROGERS CITY    LGT SNOW   5   0  78 N16       30.10R WCI -13
TRAVERSE CITY  LGT SNOW  16   8  71 N12       30.11R WCI   3
6HR MIN TEMP:  14; 6HR MAX TEMP:  16; 6HR PCP:  0.01;

$$
MIZ007>008-015-111300-
EASTERN UPPER MICHIGAN

CITY           SKY/WX    TMP DP  RH WIND       PRES   REMARKS
KINROSS        CLOUDY    -6  -9  84 N7        30.11R WCI -20
6HR MIN TEMP:  -6; 6HR MAX TEMP:   0;

MACKINAC ISLAN CLOUDY     1  -3  83 N5        30.12R WCI  -9
6HR MIN TEMP:   1; 6HR MAX TEMP:   3;

NEWBERRY       LGT SNOW   2  -1  88 NW6       30.11R WCI  -9
6HR MIN TEMP:   2; 6HR MAX TEMP:   8;

S. S. MARIE    CLEAR     -8 -17  64 N6        30.13R WCI -21
6HR MIN TEMP:  -8; 6HR MAX TEMP:  -3;

$$
MIZ004>006-011>014-085-111300-
CENTRAL UPPER MICHIGAN

CITY           SKY/WX    TMP DP  RH WIND       PRES   REMARKS
MANISTIQUE     LGT SNOW   5   1  86 CALM      30.14R
6HR MIN TEMP:   2; 6HR MAX TEMP:  10;

ESCANABA       CLEAR      7   0  72 W12       30.18R WCI  -9
6HR MIN TEMP:   5; 6HR MAX TEMP:   7;

MENOMINEE      CLEAR      3  -2  78 NW6       30.20S WCI  -8
6HR MIN TEMP:   1; 6HR MAX TEMP:   5;

SAWYER-GWINN   CLOUDY     7   1  78 NW15      30.12R WCI -11
$$
MIZ001>003-009>011-084-111300-
WESTERN UPPER MICHIGAN

CITY           SKY/WX    TMP DP  RH WIND       PRES   REMARKS
IRON MOUNTAIN  MIX PCPN   6  -4  63 NW9       30.15R WCI  -8
6HR MIN TEMP:   5; 6HR MAX TEMP:   8; 6HR PCP: TRACE;

HOUGHTON       FLURRIES   6   0  76 NW9       30.14S WCI  -8
6HR MIN TEMP:   6; 6HR MAX TEMP:   8; 6HR PCP: TRACE;

COPPER HARBOR    N/A     11   5  77 N14G22    30.16S WCI  -5
6HR MIN TEMP:  11; 6HR MAX TEMP:  12;

IRONWOOD       CLOUDY     3   1  92 W10       30.17S WCI -12
6HR MIN TEMP:   3; 6HR MAX TEMP:   9;

$$

ABBREVIATIONS USED IN REMARKS
   TC - TEMPERATURE IN CELSIUS
  WCI - WIND CHILL INDEX
   HX - HEAT INDEX
  VSB - VISIBILITY




USA.gov is the U.S. government's official web portal to all federal, state and local government web resources and services.